Tracking 28790 objects as of 19-Apr-2024
HD Live streaming from Space Station
objects crossing your sky now

NOAA 16 DEB

Track NOAA 16 DEB now!
10-day predictions


NORAD ID: 41374
Int'l Code: 2000-055JT
Perigee: 833.5 km
Apogee: 882.8 km
Inclination: 98.8 °
Period: 102.0 minutes
Semi major axis: 7229 km
RCS: Unknown
Launch date: September 21, 2000
Source: United States (US)
Launch site: AIR FORCE WESTERN TEST RANGE (AFWTR)

Note: This is SATELLITE DEBRIS
Your satellite tracking list
Your tracking list is empty




NASA's NSSDC Master Catalog

Two Line Element Set (TLE):
1 41374U 00055JT  24109.37257903  .00006501  00000-0  35237-2 0  9995
2 41374  98.7561 161.7838 0034094 264.6908  95.0374 14.12453265423624
Source of the keplerian elements: AFSPC